This is the latest recevied weather packets stored in our database for station/object XE1GMR. If no packets are shown the sender has not sent any weather packets the latest 1 day(s).
| Time | Temp. | Humidity | Pressure | Rain* | Wind** | Luminosity | Snow |
|---|---|---|---|---|---|---|---|
| 1778059686 | 16.67° C | 71% | 1121.8 hPa | 0 mm | 0.45 m/s, 274° | 0 W/m² | - |
| 1778059384 | 16.67° C | 70% | 1122 hPa | 0 mm | 0 m/s | 0 W/m² | - |
| 1778059081 | 16.67° C | 69% | 1121.9 hPa | 0 mm | 0 m/s | 0 W/m² | - |
| 1778058778 | 16.67° C | 69% | 1121.8 hPa | 0 mm | 0.45 m/s, 285° | 0 W/m² | - |
| 1778058476 | 16.67° C | 69% | 1121.7 hPa | 0 mm | 0.45 m/s, 277° | 0 W/m² | - |
| 1778058173 | 16.67° C | 69% | 1121.8 hPa | 0 mm | 0 m/s | 0 W/m² | - |
| 1778057869 | 17.22° C | 68% | 1122 hPa | 0 mm | 0 m/s | 0 W/m² | - |
| 1778057566 | 17.22° C | 68% | 1121.8 hPa | 0 mm | 0.45 m/s, 273° | 0 W/m² | - |
| 1778057262 | 17.22° C | 68% | 1121.7 hPa | 0 mm | 0 m/s | 0 W/m² | - |
| 1778056959 | 17.22° C | 67% | 1121.8 hPa | 0 mm | 0.45 m/s, 278° | 0 W/m² | - |
| 1778056656 | 17.22° C | 67% | 1121.7 hPa | 0 mm | 0.45 m/s, 265° | 0 W/m² | - |
| 1778056354 | 17.22° C | 66% | 1122 hPa | 0 mm | 0.45 m/s, 269° | 0 W/m² | - |
| 1778056051 | 17.78° C | 65% | 1122 hPa | 0 mm | 0.45 m/s, 268° | 0 W/m² | - |
| 1778055746 | 17.78° C | 65% | 1122.2 hPa | 0 mm | 0 m/s | 0 W/m² | - |
| 1778055444 | 17.78° C | 64% | 1122 hPa | 0 mm | 0.45 m/s, 282° | 0 W/m² | - |
| 1778055141 | 17.78° C | 64% | 1121.9 hPa | 0 mm | 0.45 m/s, 276° | 0 W/m² | - |
| 1778054839 | 18.33° C | 64% | 1121.9 hPa | 0 mm | 0.45 m/s, 274° | 0 W/m² | - |
| 1778054535 | 17.78° C | 64% | 1122.1 hPa | 0 mm | 0 m/s | 0 W/m² | - |
| 1778054233 | 18.33° C | 64% | 1121.9 hPa | 0 mm | 0 m/s | 0 W/m² | - |
| 1778053930 | 18.33° C | 64% | 1122 hPa | 0 mm | 0.45 m/s, 263° | 0 W/m² | - |
| 1778053628 | 18.33° C | 63% | 1122.2 hPa | 0 mm | 0.45 m/s, 264° | 0 W/m² | - |
| 1778053325 | 18.33° C | 63% | 1122.2 hPa | 0 mm | 0 m/s | 0 W/m² | - |
| 1778053022 | 18.33° C | 63% | 1122.2 hPa | 0 mm | 0.45 m/s, 256° | 0 W/m² | - |
| 1778052719 | 18.33° C | 64% | 1122 hPa | 0 mm | 0.45 m/s, 262° | 0 W/m² | - |
| 1778052416 | 18.33° C | 64% | 1122.2 hPa | 0 mm | 0 m/s | 0 W/m² | - |
* Rain latest hour (hover to see other rain measurements)
** Current wind speed in m/s (hover to see current wind gust speed)